Time,TemperatureF,DewpointF,PressureIn,WindDirection,WindDirectionDegrees,WindSpeedMPH,WindSpeedGustMPH,Humidity,HourlyPrecipIn,Conditions,Clouds,dailyrainin,SoftwareType,DateUTC
2013-08-29 00:01:00,76.9,74.0,29.89,ESE,118,0.0,2.0,89,0.00,,,0.00,weatherlink.com 1.10,2013-08-29 04:01:00,
2013-08-29 00:16:00,76.6,74.0,29.89,ESE,113,0.0,2.0,90,0.00,,,0.00,weatherlink.com 1.10,2013-08-29 04:16:00,
2013-08-29 00:31:00,76.1,73.0,29.89,ESE,113,0.0,0.0,90,0.00,,,0.00,weatherlink.com 1.10,2013-08-29 04:31:00,
2013-08-29 00:46:00,75.7,73.0,29.88,ESE,114,0.0,1.0,91,0.00,,,0.00,weatherlink.com 1.10,2013-08-29 04:46:00,
2013-08-29 01:01:00,75.7,73.0,29.88,ESE,120,0.0,2.0,91,0.00,,,0.00,weatherlink.com 1.10,2013-08-29 05:01:00,
2013-08-29 01:16:00,75.4,73.0,29.87,ESE,120,0.0,0.0,91,0.00,,,0.00,weatherlink.com 1.10,2013-08-29 05:16:00,
2013-08-29 01:31:00,75.2,73.0,29.87,ESE,122,0.0,2.0,92,0.00,,,0.00,weatherlink.com 1.10,2013-08-29 05:31:00,
2013-08-29 01:46:00,75.1,73.0,29.87,SE,127,0.0,1.0,92,0.00,,,0.00,weatherlink.com 1.10,2013-08-29 05:46:00,
2013-08-29 02:01:00,74.8,72.0,29.86,SE,127,0.0,1.0,92,0.00,,,0.00,weatherlink.com 1.10,2013-08-29 06:01:00,
2013-08-29 02:16:00,74.7,72.0,29.87,SE,126,0.0,1.0,92,0.00,,,0.00,weatherlink.com 1.10,2013-08-29 06:16:00,
2013-08-29 02:31:00,74.4,72.0,29.87,SE,126,0.0,1.0,93,0.00,,,0.00,weatherlink.com 1.10,2013-08-29 06:31:00,
2013-08-29 02:46:00,74.1,72.0,29.87,SE,126,0.0,1.0,93,0.00,,,0.00,weatherlink.com 1.10,2013-08-29 06:46:00,
2013-08-29 03:01:00,73.9,72.0,29.87,SE,126,0.0,1.0,94,0.00,,,0.00,weatherlink.com 1.10,2013-08-29 07:01:00,
2013-08-29 03:16:00,73.8,72.0,29.86,SE,126,0.0,1.0,94,0.00,,,0.00,weatherlink.com 1.10,2013-08-29 07:16:00,
2013-08-29 03:31:00,73.9,72.0,29.86,SE,126,0.0,1.0,94,0.00,,,0.00,weatherlink.com 1.10,2013-08-29 07:31:00,
2013-08-29 03:46:00,74.0,72.0,29.86,SE,126,0.0,0.0,94,0.00,,,0.00,weatherlink.com 1.10,2013-08-29 07:46:00,
2013-08-29 04:01:00,74.0,72.0,29.86,SE,126,0.0,0.0,93,0.00,,,0.00,weatherlink.com 1.10,2013-08-29 08:01:00,
2013-08-29 04:16:00,73.9,72.0,29.86,SE,126,0.0,1.0,94,0.00,,,0.00,weatherlink.com 1.10,2013-08-29 08:16:00,
2013-08-29 04:31:00,73.9,72.0,29.86,SE,126,0.0,1.0,94,0.00,,,0.00,weatherlink.com 1.10,2013-08-29 08:31:00,
2013-08-29 04:46:00,74.0,72.0,29.86,SE,126,0.0,1.0,93,0.00,,,0.00,weatherlink.com 1.10,2013-08-29 08:46:00,
2013-08-29 05:01:00,74.1,72.0,29.86,SE,126,0.0,1.0,93,0.00,,,0.00,weatherlink.com 1.10,2013-08-29 09:01:00,
2013-08-29 05:16:00,74.2,72.0,29.86,SE,126,0.0,1.0,93,0.00,,,0.00,weatherlink.com 1.10,2013-08-29 09:16:00,
2013-08-29 05:31:00,74.2,72.0,29.86,SE,126,0.0,1.0,93,0.00,,,0.00,weatherlink.com 1.10,2013-08-29 09:31:00,
2013-08-29 05:46:00,74.1,72.0,29.86,SE,126,0.0,1.0,93,0.00,,,0.00,weatherlink.com 1.10,2013-08-29 09:46:00,
2013-08-29 06:01:00,74.1,72.0,29.86,SE,124,0.0,2.0,93,0.00,,,0.00,weatherlink.com 1.10,2013-08-29 10:01:00,
2013-08-29 06:16:00,74.1,72.0,29.86,SE,124,0.0,1.0,93,0.00,,,0.00,weatherlink.com 1.10,2013-08-29 10:16:00,
2013-08-29 06:31:00,74.0,72.0,29.87,SE,124,0.0,0.0,93,0.00,,,0.00,weatherlink.com 1.10,2013-08-29 10:31:00,
2013-08-29 06:46:00,73.9,72.0,29.87,SE,124,0.0,0.0,93,0.00,,,0.00,weatherlink.com 1.10,2013-08-29 10:46:00,
2013-08-29 07:01:00,73.9,72.0,29.87,SE,124,0.0,0.0,94,0.00,,,0.00,weatherlink.com 1.10,2013-08-29 11:01:00,
2013-08-29 07:16:00,73.9,72.0,29.88,SE,124,0.0,1.0,94,0.00,,,0.00,weatherlink.com 1.10,2013-08-29 11:16:00,
2013-08-29 07:31:00,74.0,72.0,29.88,SE,124,0.0,1.0,94,0.00,,,0.00,weatherlink.com 1.10,2013-08-29 11:31:00,
2013-08-29 07:46:00,74.1,72.0,29.88,SE,124,0.0,1.0,94,0.00,,,0.00,weatherlink.com 1.10,2013-08-29 11:46:00,
2013-08-29 08:02:00,74.4,73.0,29.89,SE,124,0.0,1.0,94,0.00,,,0.00,weatherlink.com 1.10,2013-08-29 12:02:00,
2013-08-29 08:17:00,74.7,73.0,29.89,SE,131,0.0,2.0,94,0.00,,,0.00,weatherlink.com 1.10,2013-08-29 12:17:00,
2013-08-29 08:32:00,75.5,73.0,29.89,SE,132,0.0,1.0,93,0.00,,,0.00,weatherlink.com 1.10,2013-08-29 12:32:00,
2013-08-29 08:47:00,76.4,74.0,29.89,SW,232,0.0,1.0,91,0.00,,,0.00,weatherlink.com 1.10,2013-08-29 12:47:00,
2013-08-29 09:02:00,77.3,74.0,29.89,West,259,1.0,2.0,90,0.00,,,0.00,weatherlink.com 1.10,2013-08-29 13:02:00,
2013-08-29 09:17:00,78.1,74.0,29.89,SW,220,2.0,3.0,88,0.00,,,0.00,weatherlink.com 1.10,2013-08-29 13:17:00,
2013-08-29 09:32:00,78.8,74.0,29.89,SE,146,0.0,2.0,86,0.00,,,0.00,weatherlink.com 1.10,2013-08-29 13:32:00,
2013-08-29 09:47:00,79.8,75.0,29.89,South,169,1.0,2.0,84,0.00,,,0.00,weatherlink.com 1.10,2013-08-29 13:47:00,
2013-08-29 10:02:00,80.8,75.0,29.89,WSW,248,0.0,4.0,83,0.00,,,0.00,weatherlink.com 1.10,2013-08-29 14:02:00,
2013-08-29 10:17:00,81.6,75.0,29.90,SW,223,2.0,4.0,81,0.00,,,0.00,weatherlink.com 1.10,2013-08-29 14:17:00,
2013-08-29 10:32:00,82.7,76.0,29.90,SW,221,0.0,5.0,80,0.00,,,0.00,weatherlink.com 1.10,2013-08-29 14:32:00,
2013-08-29 10:47:00,83.6,76.0,29.90,West,269,0.0,3.0,77,0.00,,,0.00,weatherlink.com 1.10,2013-08-29 14:47:00,
2013-08-29 11:02:00,83.8,76.0,29.89,SSE,152,0.0,3.0,77,0.00,,,0.00,weatherlink.com 1.10,2013-08-29 15:02:00,
2013-08-29 11:17:00,84.5,75.0,29.89,West,259,2.0,3.0,74,0.00,,,0.00,weatherlink.com 1.10,2013-08-29 15:17:00,
2013-08-29 11:32:00,85.4,75.0,29.89,ESE,102,1.0,4.0,70,0.00,,,0.00,weatherlink.com 1.10,2013-08-29 15:32:00,
2013-08-29 11:47:00,86.1,74.0,29.89,SSW,213,1.0,4.0,67,0.00,,,0.00,weatherlink.com 1.10,2013-08-29 15:47:00,
2013-08-29 12:02:00,87.0,75.0,29.89,WSW,241,2.0,6.0,67,0.00,,,0.00,weatherlink.com 1.10,2013-08-29 16:02:00,
2013-08-29 12:17:00,87.5,74.0,29.89,WSW,246,2.0,7.0,65,0.00,,,0.00,weatherlink.com 1.10,2013-08-29 16:17:00,
2013-08-29 13:09:00,89.8,75.0,29.88,NE,41,0.0,3.0,61,0.00,,,0.00,weatherlink.com 1.10,2013-08-29 17:09:00,
2013-08-29 13:18:00,90.7,75.0,29.87,South,176,3.0,6.0,60,0.00,,,0.00,weatherlink.com 1.10,2013-08-29 17:18:00,
2013-08-29 13:33:00,90.5,76.0,29.87,SW,221,0.0,3.0,63,0.00,,,0.00,weatherlink.com 1.10,2013-08-29 17:33:00,
2013-08-29 13:48:00,90.7,75.0,29.88,WSW,244,0.0,4.0,61,0.00,,,0.00,weatherlink.com 1.10,2013-08-29 17:48:00,
2013-08-29 14:03:00,91.1,76.0,29.87,ENE,61,0.0,8.0,62,0.00,,,0.00,weatherlink.com 1.10,2013-08-29 18:03:00,
2013-08-29 14:18:00,91.0,75.0,29.87,NE,51,1.0,3.0,59,0.00,,,0.00,weatherlink.com 1.10,2013-08-29 18:18:00,
2013-08-29 14:33:00,91.8,77.0,29.87,SSW,192,0.0,3.0,62,0.00,,,0.00,weatherlink.com 1.10,2013-08-29 18:33:00,
2013-08-29 14:48:00,92.3,76.0,29.87,East,101,1.0,3.0,60,0.00,,,0.00,weatherlink.com 1.10,2013-08-29 18:48:00,
2013-08-29 15:03:00,92.4,74.0,29.86,West,259,1.0,5.0,56,0.00,,,0.00,weatherlink.com 1.10,2013-08-29 19:03:00,
2013-08-29 15:18:00,92.9,74.0,29.86,WSW,254,2.0,4.0,55,0.00,,,0.00,weatherlink.com 1.10,2013-08-29 19:18:00,
2013-08-29 15:33:00,92.4,74.0,29.86,SW,223,2.0,4.0,56,0.00,,,0.00,weatherlink.com 1.10,2013-08-29 19:33:00,
2013-08-29 15:48:00,92.3,75.0,29.85,SSE,156,0.0,3.0,57,0.00,,,0.00,weatherlink.com 1.10,2013-08-29 19:48:00,
2013-08-29 16:03:00,93.2,76.0,29.85,SW,225,0.0,3.0,58,0.00,,,0.00,weatherlink.com 1.10,2013-08-29 20:03:00,
2013-08-29 16:18:00,93.2,76.0,29.84,NE,54,1.0,4.0,58,0.00,,,0.00,weatherlink.com 1.10,2013-08-29 20:18:00,
2013-08-29 16:33:00,93.0,76.0,29.84,NNE,12,0.0,3.0,58,0.00,,,0.00,weatherlink.com 1.10,2013-08-29 20:33:00,
2013-08-29 16:48:00,92.8,76.0,29.85,ENE,68,0.0,3.0,59,0.00,,,0.00,weatherlink.com 1.10,2013-08-29 20:48:00,
2013-08-29 17:03:00,91.5,76.0,29.85,NE,50,0.0,2.0,60,0.00,,,0.00,weatherlink.com 1.10,2013-08-29 21:03:00,
2013-08-29 17:18:00,91.6,77.0,29.85,East,82,1.0,4.0,62,0.00,,,0.00,weatherlink.com 1.10,2013-08-29 21:18:00,
2013-08-29 17:33:00,90.7,77.0,29.85,NNE,21,0.0,2.0,65,0.00,,,0.00,weatherlink.com 1.10,2013-08-29 21:33:00,
2013-08-29 17:48:00,89.5,78.0,29.85,ENE,70,0.0,2.0,68,0.00,,,0.00,weatherlink.com 1.10,2013-08-29 21:48:00,
2013-08-29 18:03:00,88.3,77.0,29.85,NNW,348,2.0,5.0,69,0.00,,,0.00,weatherlink.com 1.10,2013-08-29 22:03:00,
2013-08-29 18:18:00,87.7,77.0,29.85,East,80,0.0,3.0,70,0.00,,,0.00,weatherlink.com 1.10,2013-08-29 22:18:00,
2013-08-29 18:33:00,87.4,76.0,29.86,North,9,1.0,2.0,69,0.00,,,0.00,weatherlink.com 1.10,2013-08-29 22:33:00,
2013-08-29 18:48:00,87.0,77.0,29.86,NE,38,0.0,1.0,71,0.00,,,0.00,weatherlink.com 1.10,2013-08-29 22:48:00,
2013-08-29 19:18:00,85.1,76.0,29.86,WNW,290,0.0,2.0,74,0.00,,,0.00,weatherlink.com 1.10,2013-08-29 23:18:00,
2013-08-29 19:33:00,84.3,76.0,29.87,WNW,290,0.0,1.0,76,0.00,,,0.00,weatherlink.com 1.10,2013-08-29 23:33:00,
2013-08-29 19:48:00,83.2,75.0,29.87,WNW,299,0.0,2.0,77,0.00,,,0.00,weatherlink.com 1.10,2013-08-29 23:48:00,
2013-08-29 20:03:00,82.3,75.0,29.88,WNW,300,0.0,1.0,78,0.00,,,0.00,weatherlink.com 1.10,2013-08-30 00:03:00,
2013-08-29 20:18:00,81.4,75.0,29.89,WNW,300,0.0,0.0,80,0.00,,,0.00,weatherlink.com 1.10,2013-08-30 00:18:00,
2013-08-29 20:33:00,80.6,75.0,29.90,WNW,300,0.0,0.0,82,0.00,,,0.00,weatherlink.com 1.10,2013-08-30 00:33:00,
2013-08-29 20:48:00,80.0,74.0,29.91,WNW,300,0.0,1.0,83,0.00,,,0.00,weatherlink.com 1.10,2013-08-30 00:48:00,
2013-08-29 21:03:00,79.6,74.0,29.91,WNW,300,0.0,0.0,84,0.00,,,0.00,weatherlink.com 1.10,2013-08-30 01:03:00,
2013-08-29 21:18:00,79.0,74.0,29.91,WNW,300,0.0,0.0,85,0.00,,,0.00,weatherlink.com 1.10,2013-08-30 01:18:00,
2013-08-29 21:33:00,78.6,74.0,29.92,WNW,300,0.0,0.0,85,0.00,,,0.00,weatherlink.com 1.10,2013-08-30 01:33:00,
2013-08-29 21:48:00,78.4,74.0,29.92,WNW,300,0.0,1.0,85,0.00,,,0.00,weatherlink.com 1.10,2013-08-30 01:48:00,
2013-08-29 22:03:00,78.1,74.0,29.92,WNW,300,0.0,0.0,86,0.00,,,0.00,weatherlink.com 1.10,2013-08-30 02:03:00,
2013-08-29 22:18:00,77.8,73.0,29.93,WNW,300,0.0,0.0,86,0.00,,,0.00,weatherlink.com 1.10,2013-08-30 02:18:00,
2013-08-29 22:33:00,77.4,73.0,29.93,WNW,300,0.0,0.0,87,0.00,,,0.00,weatherlink.com 1.10,2013-08-30 02:33:00,
2013-08-29 22:48:00,77.3,73.0,29.93,WNW,300,0.0,1.0,86,0.00,,,0.00,weatherlink.com 1.10,2013-08-30 02:48:00,
2013-08-29 23:03:00,77.1,73.0,29.92,WNW,300,0.0,0.0,86,0.00,,,0.00,weatherlink.com 1.10,2013-08-30 03:03:00,
2013-08-29 23:18:00,76.8,73.0,29.93,WNW,300,0.0,1.0,87,0.00,,,0.00,weatherlink.com 1.10,2013-08-30 03:18:00,
2013-08-29 23:33:00,76.6,73.0,29.93,WNW,300,0.0,0.0,87,0.00,,,0.00,weatherlink.com 1.10,2013-08-30 03:33:00,
2013-08-29 23:48:00,76.6,73.0,29.93,WNW,300,0.0,1.0,87,0.00,,,0.00,weatherlink.com 1.10,2013-08-30 03:48:00,